Date String (YYYY-MM-DD hh:mm:ss) UTC,Instrument flags,Ambient pressure (hPa),Sample flow (lpm),Bypass flow (lpm),Sample temperature (°C),Ambient temperature (°C),ASC tube jacket temperature (°C),LED temperature (°C),Box temperature (°C),Sample RH (%),Span deviation,Mass concentration (μg/m³),Mass concentration (μg/m³),Mass concentration (μg/m³)
DateTimeUTC,F1_M11,P_M11,Q1_M11,Q2_M11,T1_M11,T2_M11,T3_M11,T4_M11,T5_M11,U1_M11,ZSPAN_M11,X0_M11,X2_M11,X1_M11
2021-10-26 18:00:00,,0809.3,4.99,0.00,30.0,28.9,00.0,39.3,31.7,12.5,0000.0,0013.11,0002.29,0000.23
2021-10-26 18:01:00,,0809.3,5.02,0.00,30.0,28.9,00.0,39.3,31.7,12.7,0000.0,0012.52,0002.26,0000.22
2021-10-26 18:02:00,,0809.3,4.99,0.00,30.0,28.9,00.0,39.3,31.6,12.8,0000.0,0010.87,0002.06,0000.20
2021-10-26 18:03:00,,0809.3,5.00,0.00,30.0,28.8,00.0,39.3,31.6,12.8,0000.0,0010.05,0001.89,0000.19
2021-10-26 18:04:00,,0809.3,5.00,0.00,29.9,28.8,00.0,39.2,31.6,12.9,0000.0,0009.35,0001.72,0000.19
2021-10-26 18:05:00,,0809.3,5.00,0.00,29.9,28.8,00.0,39.2,31.6,13.1,0000.0,0009.70,0001.66,0000.19
2021-10-26 18:06:00,,0809.3,5.01,0.00,29.9,28.7,00.0,39.2,31.5,13.1,0000.0,0010.41,0001.68,0000.19
2021-10-26 18:07:00,,0809.3,4.98,0.00,29.9,28.7,00.0,39.2,31.5,13.2,0000.0,0010.94,0001.69,0000.18
2021-10-26 18:08:00,,0809.3,5.00,0.00,29.9,28.7,00.0,39.2,31.5,13.2,0000.0,0010.68,0001.66,0000.19
2021-10-26 18:09:00,,0809.2,4.99,0.00,29.8,28.7,00.0,39.1,31.5,13.1,0000.0,0011.01,0001.69,0000.19
2021-10-26 18:10:00,,0809.3,5.01,0.00,29.8,28.6,00.0,39.1,31.5,13.1,0000.0,0010.91,0001.68,0000.19
2021-10-26 18:11:00,,0809.4,4.99,0.00,29.8,28.6,00.0,39.1,31.5,13.1,0000.0,0010.19,0001.69,0000.20
2021-10-26 18:12:00,,0809.4,5.00,0.00,29.8,28.6,00.0,39.1,31.4,13.0,0000.0,0010.01,0001.64,0000.19
2021-10-26 18:13:00,,0809.4,4.99,0.00,29.8,28.6,00.0,39.1,31.4,12.9,0000.0,0010.04,0001.62,0000.18
2021-10-26 18:14:00,,0809.4,5.00,0.00,29.7,28.6,00.0,39.0,31.4,12.5,0000.0,0010.01,0001.67,0000.19
2021-10-26 18:15:00,,0809.6,5.00,0.00,29.7,28.5,00.0,39.0,31.4,12.5,0000.0,0010.08,0001.72,0000.19
2021-10-26 18:16:00,,0809.7,5.01,0.00,29.7,28.5,00.0,39.0,31.3,12.7,0000.0,0009.90,0001.69,0000.19
2021-10-26 18:17:00,,0809.6,4.99,0.00,29.7,28.5,00.0,39.0,31.3,12.6,0000.0,0009.06,0001.59,0000.18
2021-10-26 18:18:00,,0809.7,5.01,0.00,29.7,28.5,00.0,39.0,31.3,12.4,0000.0,0008.10,0001.50,0000.18
2021-10-26 18:19:00,,0809.7,4.99,0.00,29.6,28.5,00.0,39.0,31.3,12.3,0000.0,0008.38,0001.67,0000.19
2021-10-26 18:20:00,,0809.8,5.02,0.00,29.6,28.5,00.0,38.9,31.3,12.2,0000.0,0009.12,0001.68,0000.18
2021-10-26 18:21:00,,0809.7,5.00,0.00,29.6,28.5,00.0,38.9,31.2,12.2,0000.0,0009.85,0001.72,0000.18
2021-10-26 18:22:00,,0809.7,5.01,0.00,29.6,28.5,00.0,38.9,31.2,12.2,0000.0,0010.08,0001.74,0000.18
2021-10-26 18:23:00,,0809.7,4.99,0.00,29.6,28.4,00.0,38.9,31.3,12.2,0000.0,0010.39,0001.73,0000.19
2021-10-26 18:24:00,,0809.6,5.00,0.00,29.5,28.4,00.0,38.9,31.2,12.2,0000.0,0011.10,0001.73,0000.19
2021-10-26 18:25:00,,0809.7,5.00,0.00,29.5,28.4,00.0,38.8,31.2,12.0,0000.0,0011.49,0001.70,0000.20
2021-10-26 18:26:00,,0809.7,5.01,0.00,29.5,28.4,00.0,38.8,31.2,12.2,0000.0,0011.62,0001.69,0000.18
2021-10-26 18:27:00,,0809.6,5.00,0.00,29.5,28.4,00.0,38.8,31.2,12.2,0000.0,0012.05,0001.65,0000.18
2021-10-26 18:28:00,,0809.7,4.99,0.00,29.5,28.3,00.0,38.8,31.2,12.1,0000.0,0011.70,0001.67,0000.18
2021-10-26 18:29:00,,0809.7,5.00,0.00,29.5,28.3,00.0,38.8,31.1,12.2,0000.0,0012.03,0001.77,0000.19
2021-10-26 18:30:00,,0809.5,5.00,0.00,29.5,28.3,00.0,38.7,31.1,12.3,0000.0,0012.34,0001.64,0000.18
2021-10-26 18:31:00,,0809.5,5.00,0.00,29.5,28.3,00.0,38.7,31.1,12.1,0000.0,0012.27,0001.60,0000.19
2021-10-26 18:32:00,,0809.3,4.99,0.00,29.5,28.3,00.0,38.7,31.1,12.1,0000.0,0013.28,0001.55,0000.19
2021-10-26 18:33:00,,0809.3,5.01,0.00,29.4,28.3,00.0,38.7,31.1,11.9,0000.0,0013.20,0001.51,0000.19
2021-10-26 18:34:00,,0809.3,4.99,0.00,29.4,28.3,00.0,38.7,31.1,11.9,0000.0,0012.90,0001.54,0000.20
2021-10-26 18:35:00,,0809.3,4.99,0.00,29.4,28.3,00.0,38.7,31.1,11.9,0000.0,0012.32,0001.56,0000.20
2021-10-26 18:36:00,,0809.2,5.00,0.00,29.4,28.3,00.0,38.6,31.1,11.8,0000.0,0012.05,0001.52,0000.19
2021-10-26 18:37:00,,0809.3,5.00,0.00,29.4,28.3,00.0,38.6,31.0,11.9,0000.0,0011.81,0001.44,0000.19
2021-10-26 18:38:00,,0809.3,5.01,0.00,29.4,28.3,00.0,38.6,31.0,11.9,0000.0,0011.17,0001.44,0000.19
2021-10-26 18:39:00,,0809.4,5.00,0.00,29.4,28.3,00.0,38.6,31.1,11.8,0000.0,0010.81,0001.37,0000.19
2021-10-26 18:40:00,,0809.4,4.99,0.00,29.4,28.3,00.0,38.6,31.1,11.8,0000.0,0010.22,0001.21,0000.18
2021-10-26 18:41:00,,0809.4,5.01,0.00,29.3,28.3,00.0,38.6,31.1,11.8,0000.0,0009.03,0001.08,0000.17
2021-10-26 18:42:00,,0809.4,5.00,0.00,29.3,28.3,00.0,38.6,31.0,11.8,0000.0,0008.00,0000.95,0000.15
2021-10-26 18:43:00,,0809.5,4.99,0.00,29.3,28.3,00.0,38.5,31.0,11.8,0000.0,0005.14,0000.81,0000.15
2021-10-26 18:44:00,,0809.5,5.00,0.00,29.3,28.3,00.0,38.5,31.0,11.8,0000.0,0004.34,0000.72,0000.13
2021-10-26 18:45:00,,0809.6,4.99,0.00,29.3,28.2,00.0,38.5,30.8,11.9,0000.0,0003.88,0000.61,0000.12
2021-10-26 18:46:00,,0809.5,5.01,0.00,29.3,28.2,00.0,38.5,30.9,11.9,0000.0,0003.48,0000.52,0000.11
2021-10-26 18:47:00,,0809.6,4.99,0.00,29.3,28.2,00.0,38.5,30.9,11.8,0000.0,0002.46,0000.47,0000.10
2021-10-26 18:48:00,,0809.6,5.00,0.00,29.3,28.1,00.0,38.5,30.8,11.9,0000.0,0002.09,0000.43,0000.09
2021-10-26 18:49:00,,0809.5,5.00,0.00,29.2,28.1,00.0,38.5,30.8,11.8,0000.0,0001.40,0000.37,0000.08
2021-10-26 18:50:00,,0809.5,4.99,0.00,29.2,28.1,00.0,38.5,30.8,11.8,0000.0,0001.32,0000.32,0000.07
2021-10-26 18:51:00,,0809.5,5.01,0.00,29.2,28.1,00.0,38.5,30.8,11.8,0000.0,0001.36,0000.33,0000.07
2021-10-26 18:52:00,,0809.5,4.99,0.00,29.2,28.0,00.0,38.5,30.8,11.8,0000.0,0003.23,0000.34,0000.07
2021-10-26 18:53:00,,0809.5,5.00,0.00,29.2,28.0,00.0,38.5,30.8,11.7,0000.0,0002.89,0000.33,0000.07
2021-10-26 18:54:00,,0809.5,4.99,0.00,29.2,28.0,00.0,38.5,30.8,11.7,0000.0,0002.98,0000.37,0000.06
2021-10-26 18:55:00,,0809.4,5.00,0.00,29.2,28.0,00.0,38.4,30.8,11.7,0000.0,0003.73,0000.43,0000.06
2021-10-26 18:56:00,,0809.4,5.00,0.00,29.2,28.1,00.0,38.4,30.8,11.7,0000.0,0004.79,0000.51,0000.07
2021-10-26 18:57:00,,0809.3,5.01,0.00,29.2,28.1,00.0,38.4,30.8,11.7,0000.0,0005.33,0000.54,0000.07
2021-10-26 18:58:00,,0809.4,5.01,0.00,29.2,28.0,00.0,38.4,30.8,11.7,0000.0,0005.26,0000.54,0000.07
2021-10-26 18:59:00,,0809.4,5.00,0.00,29.2,28.1,00.0,38.4,30.8,11.7,0000.0,0005.43,0000.55,0000.07
